Regional Weather Roundup
Issued by NWS

Home | Current Version | Previous Version | Text Only | Print | Product List | Glossary On
Versions: 1 2 3 4 5 6 7 8 9 10 11 12 13 14 15 16 17 18 19 20 21 22 23 24 25 26 27 28 29 30 31 32 33 34 35 36 37 38 39 40 41 42 43 44 45 46 47 48 49 50
000
ASUS43 KLSX 040559
RWRMO

WEATHER SUMMARY FOR MISSOURI
NATIONAL WEATHER SERVICE SPRINGFIELD MO
1200 AM CST WED MAR 04 2015

NOTE: "FAIR" INDICATES FEW OR NO CLOUDS BELOW 12,000 FEET WITH NO
       SIGNIFICANT WEATHER AND/OR OBSTRUCTIONS TO VISIBILITY.
       CURRENT SKY AND/OR WEATHER CONDITIONS ARE NOT AVAILABLE FOR
       CHILLICOTHE AND FARMINGTON.

MOZ001>031-035>038-043-044-053-054-040700-
...NORTHERN AND WESTERN MISSOURI...

CITY           SKY/WX    TMP DP  RH WIND       PRES   REMARKS
KANSAS CTY INT MOCLDY    27  18  69 N18       30.03R WCI  14
6HR MIN TEMP:  27; 6HR MAX TEMP:  38;

KANSAS C DTWN  MOCLDY    30  18  60 N14       30.04R WCI  19
6HR MIN TEMP:  30; 6HR MAX TEMP:  41;

LEE`S SUMMIT   CLOUDY    30  23  75 N13       30.02R WCI  20
6HR MIN TEMP:  30; 6HR MAX TEMP:  38;

ST JOSEPH      PTCLDY    23  12  62 N18       30.10R WCI   9
6HR MIN TEMP:  23; 6HR MAX TEMP:  35;

CHILLICOTHE      N/A     29  20  69 N9G21     30.03S WCI  20
6HR MIN TEMP:  29; 6HR MAX TEMP:  37;


$$
MOZ066>068-077>081-088>096-101>105-040700-
...SOUTHWEST MISSOURI...

CITY           SKY/WX    TMP DP  RH WIND       PRES   REMARKS
SPRINGFIELD    CLOUDY    38  35  89 N13       29.93R FOG     WCI  30
6HR MIN TEMP:  38; 6HR MAX TEMP:  44; 6HR PCP: TRACE;

JOPLIN         CLOUDY    37  33  85 N16       29.96R FOG     WCI  28
6HR MIN TEMP:  37; 6HR MAX TEMP:  46; 6HR PCP: TRACE;


$$
MOZ032>034-039>042-045>050-055>058-069>072-040700-
...CENTRAL MISSOURI...

CITY           SKY/WX    TMP DP  RH WIND       PRES   REMARKS
COLUMBIA       CLOUDY    35  29  78 N3        29.98R
6HR MIN TEMP:  35; 6HR MAX TEMP:  39; 6HR PCP: TRACE;

JEFFERSON CITY CLOUDY    36  30  79 NW3       29.99R
6HR MIN TEMP:  36; 6HR MAX TEMP:  46; 6HR PCP:  0.01;

ROLLA          LGT RAIN  35  34  96 N9        29.93R FOG     WCI  28
6HR MIN TEMP:  35; 6HR MAX TEMP:  43; 6HR PCP:  0.07;

SEDALIA        CLOUDY    34  28  79 N8        29.99S WCI  27
6HR MIN TEMP:  34; 6HR MAX TEMP:  38;

OSAGE BEACH    CLOUDY    36  30  80 NW7       29.97R WCI  30

$$
MOZ051-052-059>065-040700-
...EAST CENTRAL MISSOURI...

CITY           SKY/WX    TMP DP  RH WIND       PRES   REMARKS
ST LOUIS INTL  LGT RAIN  37  33  85 NE8       29.95S FOG
6HR MIN TEMP:  37; 6HR MAX TEMP:  44; 6HR PCP:  0.11;

SPIRIT OF STL  LGT RAIN  36  34  92 N5        29.93F FOG
6HR MIN TEMP:  36; 6HR MAX TEMP:  43; 6HR PCP:  0.12;

ST CHARLES     CLOUDY    35  31  85 N9        29.94F WCI  28
6HR MIN TEMP:  35; 6HR MAX TEMP:  42; 6HR PCP:  0.04;


$$
MOZ072>076-082>087-097>100-106>115-040700-
...SOUTH CENTRAL AND SOUTHEAST MISSOURI...

CITY           SKY/WX    TMP DP  RH WIND       PRES   REMARKS
CAPE GIRARDEAU LGT RAIN  41  41 100 N5        29.92R VSB 1
6HR MIN TEMP:  37; 6HR MAX TEMP:  41; 6HR PCP:  0.80;

FARMINGTON     CLOUDY    39  37  93 N5        29.94R
6HR MIN TEMP:  39; 6HR MAX TEMP:  46; 6HR PCP:  0.15;

POPLAR BLUFF   LGT RAIN  43  41  93 N9        29.88F FOG
6HR MIN TEMP:  40; 6HR MAX TEMP:  45; 6HR PCP:  0.74;

WEST PLAINS    LGT RAIN  41  39  93 N5        29.88S FOG
6HR MIN TEMP:  41; 6HR MAX TEMP:  48; 6HR PCP:  0.21;


$$


USA.gov is the U.S. government's official web portal to all federal, state and local government web resources and services.